Time,TemperatureF,DewpointF,PressureIn,WindDirection,WindDirectionDegrees,WindSpeedMPH,WindSpeedGustMPH,Humidity,HourlyPrecipIn,Conditions,Clouds,dailyrainin,SoftwareType,DateUTC
2013-01-19 00:08:00,38.9,11.0,25.23,WNW,293,8.0,9.0,32,0.00,,,0.00,weatherlink.com 1.10,2013-01-19 07:08:00,
2013-01-19 00:23:00,40.1,12.0,25.23,WNW,297,11.0,19.0,31,0.00,,,0.00,weatherlink.com 1.10,2013-01-19 07:23:00,
2013-01-19 00:38:00,40.2,12.0,25.24,NW,324,7.0,20.0,31,0.00,,,0.00,weatherlink.com 1.10,2013-01-19 07:38:00,
2013-01-19 00:53:00,40.0,11.0,25.24,WNW,300,7.0,17.0,31,0.00,,,0.00,weatherlink.com 1.10,2013-01-19 07:53:00,
2013-01-19 01:08:00,40.4,11.0,25.24,WNW,300,6.0,22.0,30,0.00,,,0.00,weatherlink.com 1.10,2013-01-19 08:08:00,
2013-01-19 01:23:00,40.4,11.0,25.25,NNW,333,20.0,21.0,30,0.00,,,0.00,weatherlink.com 1.10,2013-01-19 08:23:00,
2013-01-19 01:38:00,40.2,11.0,25.26,NW,314,13.0,27.0,30,0.00,,,0.00,weatherlink.com 1.10,2013-01-19 08:38:00,
2013-01-19 01:53:00,38.9,11.0,25.26,WNW,290,6.0,17.0,32,0.00,,,0.00,weatherlink.com 1.10,2013-01-19 08:53:00,
2013-01-19 02:08:00,37.5,11.0,25.27,West,281,11.0,17.0,34,0.00,,,0.00,weatherlink.com 1.10,2013-01-19 09:08:00,
2013-01-19 02:23:00,37.1,11.0,25.27,WNW,301,8.0,13.0,34,0.00,,,0.00,weatherlink.com 1.10,2013-01-19 09:23:00,
2013-01-19 02:38:00,37.3,11.0,25.27,WNW,299,4.0,15.0,34,0.00,,,0.00,weatherlink.com 1.10,2013-01-19 09:38:00,
2013-01-19 02:53:00,35.6,11.0,25.27,NW,306,5.0,10.0,36,0.00,,,0.00,weatherlink.com 1.10,2013-01-19 09:53:00,
2013-01-19 03:08:00,38.3,11.0,25.28,WNW,297,7.0,14.0,32,0.00,,,0.00,weatherlink.com 1.10,2013-01-19 10:08:00,
2013-01-19 03:23:00,37.9,11.0,25.28,NW,309,5.0,11.0,33,0.00,,,0.00,weatherlink.com 1.10,2013-01-19 10:23:00,
2013-01-19 03:38:00,38.5,11.0,25.28,NNW,327,9.0,15.0,32,0.00,,,0.00,weatherlink.com 1.10,2013-01-19 10:38:00,
2013-01-19 03:53:00,38.3,11.0,25.28,NW,315,7.0,16.0,32,0.00,,,0.00,weatherlink.com 1.10,2013-01-19 10:53:00,
2013-01-19 04:08:00,37.2,11.0,25.29,NNW,341,10.0,14.0,34,0.00,,,0.00,weatherlink.com 1.10,2013-01-19 11:08:00,
2013-01-19 05:54:00,35.3,11.0,25.35,NNW,328,5.0,10.0,36,0.00,,,0.00,weatherlink.com 1.10,2013-01-19 12:54:00,
2013-01-19 06:09:00,35.0,11.0,25.35,NW,306,10.0,10.0,37,0.00,,,0.00,weatherlink.com 1.10,2013-01-19 13:09:00,
2013-01-19 06:24:00,33.9,11.0,25.35,WNW,293,6.0,9.0,38,0.00,,,0.00,weatherlink.com 1.10,2013-01-19 13:24:00,
2013-01-19 06:39:00,31.0,11.0,25.35,NW,317,4.0,7.0,43,0.00,,,0.00,weatherlink.com 1.10,2013-01-19 13:39:00,
2013-01-19 06:54:00,30.2,11.0,25.35,NW,311,4.0,8.0,44,0.00,,,0.00,weatherlink.com 1.10,2013-01-19 13:54:00,
2013-01-19 07:09:00,31.4,11.0,25.35,West,269,5.0,12.0,43,0.00,,,0.00,weatherlink.com 1.10,2013-01-19 14:09:00,
2013-01-19 07:24:00,30.5,11.0,25.36,West,273,9.0,12.0,44,0.00,,,0.00,weatherlink.com 1.10,2013-01-19 14:24:00,
2013-01-19 07:39:00,31.7,11.0,25.37,West,266,9.0,13.0,42,0.00,,,0.00,weatherlink.com 1.10,2013-01-19 14:39:00,
2013-01-19 07:54:00,32.4,11.0,25.37,West,264,10.0,12.0,41,0.00,,,0.00,weatherlink.com 1.10,2013-01-19 14:54:00,
2013-01-19 08:09:00,33.4,11.0,25.37,West,271,4.0,12.0,40,0.00,,,0.00,weatherlink.com 1.10,2013-01-19 15:09:00,
2013-01-19 08:24:00,34.6,12.0,25.37,West,266,6.0,10.0,39,0.00,,,0.00,weatherlink.com 1.10,2013-01-19 15:24:00,
2013-01-19 08:39:00,37.9,12.0,25.38,West,274,5.0,11.0,34,0.00,,,0.00,weatherlink.com 1.10,2013-01-19 15:39:00,
2013-01-19 08:54:00,39.9,12.0,25.39,WNW,296,6.0,10.0,32,0.00,,,0.00,weatherlink.com 1.10,2013-01-19 15:54:00,
2013-01-19 09:09:00,41.9,12.0,25.40,WNW,283,8.0,13.0,29,0.00,,,0.00,weatherlink.com 1.10,2013-01-19 16:09:00,
2013-01-19 09:24:00,43.7,11.0,25.41,NW,326,8.0,18.0,26,0.00,,,0.00,weatherlink.com 1.10,2013-01-19 16:24:00,
2013-01-19 09:39:00,44.7,12.0,25.41,WNW,298,13.0,14.0,26,0.00,,,0.00,weatherlink.com 1.10,2013-01-19 16:39:00,
2013-01-19 09:55:00,45.7,11.0,25.41,NNW,328,10.0,14.0,24,0.00,,,0.00,weatherlink.com 1.10,2013-01-19 16:55:00,
2013-01-19 10:10:00,46.7,11.0,25.40,NW,316,12.0,18.0,23,0.00,,,0.00,weatherlink.com 1.10,2013-01-19 17:10:00,
2013-01-19 10:25:00,47.7,9.0,25.40,NW,318,9.0,21.0,21,0.00,,,0.00,weatherlink.com 1.10,2013-01-19 17:25:00,
2013-01-19 10:40:00,48.9,10.0,25.40,NNW,334,9.0,20.0,21,0.00,,,0.00,weatherlink.com 1.10,2013-01-19 17:40:00,
2013-01-19 11:10:00,50.8,10.0,25.39,WNW,303,10.0,19.0,19,0.00,,,0.00,weatherlink.com 1.10,2013-01-19 18:10:00,
2013-01-19 11:25:00,50.6,8.0,25.39,NW,311,11.0,22.0,18,0.00,,,0.00,weatherlink.com 1.10,2013-01-19 18:25:00,
2013-01-19 11:40:00,51.6,9.0,25.38,NW,321,17.0,22.0,18,0.00,,,0.00,weatherlink.com 1.10,2013-01-19 18:40:00,
2013-01-19 11:55:00,51.7,8.0,25.38,NW,309,11.0,24.0,17,0.00,,,0.00,weatherlink.com 1.10,2013-01-19 18:55:00,
2013-01-19 12:10:00,52.4,7.0,25.37,NNW,334,12.0,20.0,16,0.00,,,0.00,weatherlink.com 1.10,2013-01-19 19:10:00,
2013-01-19 13:10:00,53.8,8.0,25.36,NNW,339,10.0,15.0,16,0.00,,,0.00,weatherlink.com 1.10,2013-01-19 20:10:00,
2013-01-19 13:25:00,54.3,7.0,25.35,NNW,335,13.0,16.0,15,0.00,,,0.00,weatherlink.com 1.10,2013-01-19 20:25:00,
2013-01-19 13:40:00,53.9,5.0,25.35,NW,319,7.0,16.0,14,0.00,,,0.00,weatherlink.com 1.10,2013-01-19 20:40:00,
2013-01-19 13:55:00,54.3,7.0,25.36,NW,323,7.0,16.0,15,0.00,,,0.00,weatherlink.com 1.10,2013-01-19 20:55:00,
2013-01-19 14:10:00,54.1,7.0,25.36,NNW,338,6.0,18.0,15,0.00,,,0.00,weatherlink.com 1.10,2013-01-19 21:10:00,
2013-01-19 14:25:00,53.9,10.0,25.36,NNW,328,12.0,16.0,17,0.00,,,0.00,weatherlink.com 1.10,2013-01-19 21:25:00,
2013-01-19 14:40:00,54.2,10.0,25.36,NNW,337,15.0,16.0,17,0.00,,,0.00,weatherlink.com 1.10,2013-01-19 21:40:00,
2013-01-19 14:55:00,53.6,10.0,25.35,NNW,328,10.0,21.0,17,0.00,,,0.00,weatherlink.com 1.10,2013-01-19 21:55:00,
2013-01-19 15:10:00,53.5,11.0,25.35,NNW,347,13.0,15.0,18,0.00,,,0.00,weatherlink.com 1.10,2013-01-19 22:10:00,
2013-01-19 15:25:00,52.7,10.0,25.35,NNE,30,6.0,14.0,18,0.00,,,0.00,weatherlink.com 1.10,2013-01-19 22:25:00,
2013-01-19 15:40:00,52.0,11.0,25.35,North,1,13.0,13.0,19,0.00,,,0.00,weatherlink.com 1.10,2013-01-19 22:40:00,
2013-01-19 15:55:00,51.3,11.0,25.35,NNW,343,3.0,9.0,20,0.00,,,0.00,weatherlink.com 1.10,2013-01-19 22:55:00,
2013-01-19 16:10:00,50.2,10.0,25.35,North,360,13.0,17.0,20,0.00,,,0.00,weatherlink.com 1.10,2013-01-19 23:10:00,
2013-01-19 16:25:00,47.0,11.0,25.35,North,358,7.0,14.0,23,0.00,,,0.00,weatherlink.com 1.10,2013-01-19 23:25:00,
2013-01-19 16:40:00,44.9,10.0,25.35,NNW,337,8.0,13.0,24,0.00,,,0.00,weatherlink.com 1.10,2013-01-19 23:40:00,
2013-01-19 16:55:00,43.2,10.0,25.36,North,355,9.0,12.0,26,0.00,,,0.00,weatherlink.com 1.10,2013-01-19 23:55:00,
2013-01-19 17:10:00,43.0,10.0,25.36,North,354,7.0,14.0,26,0.00,,,0.00,weatherlink.com 1.10,2013-01-20 00:10:00,
2013-01-19 17:25:00,41.1,10.0,25.37,NNW,338,8.0,12.0,28,0.00,,,0.00,weatherlink.com 1.10,2013-01-20 00:25:00,
2013-01-19 17:40:00,37.9,10.0,25.37,NNW,335,9.0,11.0,32,0.00,,,0.00,weatherlink.com 1.10,2013-01-20 00:40:00,
2013-01-19 17:55:00,38.4,11.0,25.38,NNW,340,9.0,15.0,32,0.00,,,0.00,weatherlink.com 1.10,2013-01-20 00:55:00,
2013-01-19 18:10:00,38.6,11.0,25.38,North,354,6.0,14.0,32,0.00,,,0.00,weatherlink.com 1.10,2013-01-20 01:10:00,
2013-01-19 18:25:00,38.4,11.0,25.38,NNW,335,7.0,11.0,32,0.00,,,0.00,weatherlink.com 1.10,2013-01-20 01:25:00,
2013-01-19 18:41:00,39.1,11.0,25.39,NNW,327,6.0,10.0,31,0.00,,,0.00,weatherlink.com 1.10,2013-01-20 01:41:00,
2013-01-19 18:55:00,39.5,10.0,25.39,NNW,346,7.0,11.0,30,0.00,,,0.00,weatherlink.com 1.10,2013-01-20 01:55:00,
2013-01-19 19:10:00,39.5,10.0,25.40,West,274,3.0,11.0,30,0.00,,,0.00,weatherlink.com 1.10,2013-01-20 02:10:00,
2013-01-19 19:40:00,39.8,10.0,25.40,NNW,344,4.0,8.0,29,0.00,,,0.00,weatherlink.com 1.10,2013-01-20 02:40:00,
2013-01-19 19:55:00,36.9,10.0,25.40,NE,34,0.0,5.0,33,0.00,,,0.00,weatherlink.com 1.10,2013-01-20 02:55:00,
2013-01-19 20:10:00,36.6,11.0,25.40,North,360,4.0,4.0,34,0.00,,,0.00,weatherlink.com 1.10,2013-01-20 03:10:00,
2013-01-19 20:25:00,36.4,10.0,25.39,NE,37,2.0,3.0,34,0.00,,,0.00,weatherlink.com 1.10,2013-01-20 03:25:00,
2013-01-19 20:40:00,34.5,10.0,25.39,NE,37,0.0,1.0,36,0.00,,,0.00,weatherlink.com 1.10,2013-01-20 03:40:00,
2013-01-19 20:56:00,33.8,11.0,25.39,NNW,338,1.0,3.0,38,0.00,,,0.00,weatherlink.com 1.10,2013-01-20 03:56:00,
2013-01-19 21:11:00,33.2,11.0,25.39,ESE,108,0.0,3.0,40,0.00,,,0.00,weatherlink.com 1.10,2013-01-20 04:11:00,
2013-01-19 21:26:00,32.4,12.0,25.38,SW,231,1.0,1.0,43,0.00,,,0.00,weatherlink.com 1.10,2013-01-20 04:26:00,
2013-01-19 21:41:00,31.5,11.0,25.39,SSE,152,0.0,2.0,43,0.00,,,0.00,weatherlink.com 1.10,2013-01-20 04:41:00,
2013-01-19 21:56:00,31.0,12.0,25.39,SE,132,0.0,3.0,45,0.00,,,0.00,weatherlink.com 1.10,2013-01-20 04:56:00,
2013-01-19 22:11:00,30.3,12.0,25.39,SSW,203,0.0,1.0,46,0.00,,,0.00,weatherlink.com 1.10,2013-01-20 05:11:00,
2013-01-19 22:26:00,29.1,12.0,25.39,NE,42,2.0,3.0,48,0.00,,,0.00,weatherlink.com 1.10,2013-01-20 05:26:00,
2013-01-19 22:41:00,27.2,12.0,25.38,WNW,297,0.0,2.0,52,0.00,,,0.00,weatherlink.com 1.10,2013-01-20 05:41:00,
2013-01-19 22:56:00,27.9,12.0,25.38,North,359,1.0,2.0,52,0.00,,,0.00,weatherlink.com 1.10,2013-01-20 05:56:00,
2013-01-19 23:11:00,27.5,12.0,25.37,NNW,328,0.0,2.0,52,0.00,,,0.00,weatherlink.com 1.10,2013-01-20 06:11:00,
2013-01-19 23:26:00,27.4,12.0,25.37,East,82,3.0,3.0,53,0.00,,,0.00,weatherlink.com 1.10,2013-01-20 06:26:00,
2013-01-19 23:41:00,26.2,12.0,25.36,SSW,208,1.0,1.0,55,0.00,,,0.00,weatherlink.com 1.10,2013-01-20 06:41:00,
2013-01-19 23:56:00,25.1,11.0,25.36,NE,35,1.0,4.0,56,0.00,,,0.00,weatherlink.com 1.10,2013-01-20 06:56:00,